Weather History for Gustavus, AK

Change the Weather History Date:

Sunday, March 3, 2013

  Actual Average Record
Temperature  
Mean Temperature 34 °F -  
Max Temperature 41 °F 36 °F 46 °F (2005)
Min Temperature 28 °F 27 °F -10 °F (1955)
Degree Days  
Heating Degree Days 30    
Moisture  
Dew Point 28 °F    
Average Humidity 79    
Maximum Humidity 87    
Minimum Humidity 65    
Precipitation  
Precipitation 0.00 in - - ()
Sea Level Pressure  
Sea Level Pressure 30.37 in    
Wind  
Wind Speed 1 mph (NW)    
Max Wind Speed 8 mph    
Max Gust Speed -    
Visibility 10 miles    
Events      
Averages and records for this station are not official NWS values.
T = Trace of Precipitation, MM = Missing Value Source: NWS Daily Summary

Daily Weather History Graph

Daily Weather History Graph

Search for Another Location

Airport:

Trip Planner

Search our weather history database for the weather conditions in past years. The results will help you decide how hot, cold, wet, or windy it might be!

Date:

Astronomy

Mar. 03, 2013 Rise Set
Actual Time 6:51 AM AKST 5:38 PM AKST
Civil Twilight 6:11 AM AKST 6:18 PM AKST
Nautical Twilight 5:25 AM AKST 7:04 PM AKST
Astronomical Twilight 4:39 AM AKST 7:51 PM AKST
Moon 12:53 AM AKST (3/3) 8:42 AM AKST (3/3)
Length of Visible Light 12h 07m
Length of Day
10h 47m
Waning Gibbous, 62% of the Moon is Illuminated
Mar 3
Waning Gibbous
Mar 4
Last Quarter
Mar 11
New
Mar 19
First Quarter
Mar 27
Full

Hourly Weather History & Observations

Time (AKST) Temp. Windchill Dew Point Humidity Pressure Visibility Wind Dir Wind Speed Gust Speed Precip Events Conditions
12:16 AM 28.4 °F - 23.0 °F 80% 30.20 in 10.0 mi Calm Calm - N/A   Mostly Cloudy
12:36 AM 28.4 °F - 23.0 °F 80% 30.21 in 10.0 mi Calm Calm - N/A   Overcast
12:56 AM 28.4 °F - 24.8 °F 86% 30.22 in 10.0 mi Calm Calm - N/A   Overcast
1:16 AM 28.4 °F - 24.8 °F 86% 30.22 in 10.0 mi Calm Calm - N/A   Overcast
1:36 AM 30.2 °F - 24.8 °F 80% 30.23 in 10.0 mi Calm Calm - N/A   Overcast
1:56 AM 30.2 °F - 26.6 °F 86% 30.24 in 10.0 mi Calm Calm - N/A   Overcast
2:16 AM 30.2 °F - 26.6 °F 86% 30.25 in 10.0 mi Calm Calm - N/A   Overcast
2:36 AM 30.2 °F - 26.6 °F 86% 30.25 in 10.0 mi Calm Calm - N/A   Overcast
2:56 AM 30.2 °F - 26.6 °F 86% 30.25 in 10.0 mi Calm Calm - N/A   Overcast
3:16 AM 30.2 °F - 26.6 °F 86% 30.26 in 10.0 mi Calm Calm - N/A   Overcast
3:36 AM 30.2 °F - 26.6 °F 86% 30.26 in 10.0 mi Calm Calm - N/A   Overcast
3:56 AM 30.2 °F - 26.6 °F 86% 30.27 in 10.0 mi Calm Calm - N/A   Overcast
4:16 AM 30.2 °F - 26.6 °F 86% 30.27 in 10.0 mi Calm Calm - N/A   Overcast
4:36 AM 30.2 °F 26.7 °F 26.6 °F 86% 30.28 in 10.0 mi North 3.5 mph - N/A   Overcast
4:56 AM 30.2 °F - 26.6 °F 86% 30.29 in 10.0 mi Calm Calm - N/A   Overcast
5:16 AM 32.0 °F 28.7 °F 26.6 °F 80% 30.29 in 10.0 mi North 3.5 mph - N/A   Mostly Cloudy
5:36 AM 30.2 °F - 26.6 °F 86% 30.29 in 10.0 mi Calm Calm - N/A   Mostly Cloudy
5:56 AM 30.2 °F - 26.6 °F 86% 30.29 in 10.0 mi Calm Calm - N/A   Overcast
6:16 AM 30.2 °F 25.4 °F 26.6 °F 86% 30.30 in 10.0 mi NNW 4.6 mph - N/A   Overcast
6:36 AM 30.2 °F - 26.6 °F 86% 30.31 in 10.0 mi Calm Calm - N/A   Overcast
6:56 AM 30.2 °F - 24.8 °F 80% 30.31 in 10.0 mi Calm Calm - N/A   Overcast
7:16 AM 30.2 °F - 26.6 °F 86% 30.32 in 10.0 mi Calm Calm - N/A   Overcast
7:36 AM 30.2 °F - 26.6 °F 86% 30.32 in 10.0 mi Calm Calm - N/A   Overcast
7:56 AM 32.0 °F - 26.6 °F 80% 30.33 in 10.0 mi Calm Calm - N/A   Overcast
8:16 AM 33.8 °F - 28.4 °F 81% 30.33 in 10.0 mi Calm Calm - N/A   Overcast
8:36 AM 33.8 °F - 28.4 °F 81% 30.33 in 10.0 mi Calm Calm - N/A   Overcast
8:56 AM 33.8 °F - 30.2 °F 87% 30.34 in 10.0 mi Calm Calm - N/A   Overcast
9:16 AM 35.6 °F - 30.2 °F 81% 30.35 in 10.0 mi Calm Calm - N/A   Mostly Cloudy
9:36 AM 37.4 °F - 32.0 °F 81% 30.36 in 10.0 mi Calm Calm - N/A   Overcast
9:56 AM 37.4 °F - 30.2 °F 75% 30.36 in 10.0 mi Calm Calm - N/A   Overcast
10:16 AM 37.4 °F 34.9 °F 30.2 °F 75% 30.37 in 10.0 mi ESE 3.5 mph - N/A   Overcast
10:36 AM 37.4 °F 33.8 °F 32.0 °F 81% 30.37 in 10.0 mi East 4.6 mph - N/A   Overcast
10:56 AM 39.2 °F - 30.2 °F 70% 30.38 in 10.0 mi Calm Calm - N/A   Overcast
11:16 AM 39.2 °F 35.0 °F 30.2 °F 70% 30.39 in 10.0 mi SE 5.8 mph - N/A   Overcast
11:36 AM 39.2 °F 37.0 °F 30.2 °F 70% 30.39 in 10.0 mi ESE 3.5 mph - N/A   Overcast
11:56 AM 39.2 °F 37.0 °F 30.2 °F 70% 30.40 in 10.0 mi SE 3.5 mph - N/A   Overcast
12:16 PM 39.2 °F - 30.2 °F 70% 30.40 in 10.0 mi Calm Calm - N/A   Overcast
12:36 PM 39.2 °F 37.0 °F 30.2 °F 70% 30.41 in 10.0 mi SE 3.5 mph - N/A   Overcast
12:56 PM 39.2 °F - 30.2 °F 70% 30.41 in 10.0 mi Calm Calm - N/A   Overcast
1:16 PM 39.2 °F - 30.2 °F 70% 30.41 in 10.0 mi Calm Calm - N/A   Overcast
1:36 PM 41.0 °F - 30.2 °F 65% 30.41 in 10.0 mi Calm Calm - N/A   Overcast
1:56 PM 41.0 °F 39.0 °F 30.2 °F 65% 30.41 in 10.0 mi SSW 3.5 mph - N/A   Overcast
2:16 PM 41.0 °F - 30.2 °F 65% 30.41 in 10.0 mi Calm Calm - N/A   Overcast
2:36 PM 39.2 °F 33.6 °F 30.2 °F 70% 30.42 in 10.0 mi WSW 8.1 mph - N/A   Overcast
2:56 PM 39.2 °F 35.0 °F 30.2 °F 70% 30.42 in 10.0 mi WSW 5.8 mph - N/A   Overcast
3:16 PM 39.2 °F 35.0 °F 30.2 °F 70% 30.43 in 10.0 mi SW 5.8 mph - N/A   Overcast
3:36 PM 39.2 °F 35.9 °F 30.2 °F 70% 30.43 in 10.0 mi WSW 4.6 mph - N/A   Overcast
3:56 PM 39.2 °F 35.9 °F 32.0 °F 75% 30.43 in 10.0 mi SW 4.6 mph - N/A   Overcast
4:16 PM - - - N/A% 30.43 in 10.0 mi WSW 4.6 mph - N/A   Overcast
4:36 PM - - - N/A% 30.43 in 10.0 mi WNW 3.5 mph - N/A   Overcast
4:56 PM - - - N/A% 30.43 in 10.0 mi WNW 4.6 mph - N/A   Overcast
5:16 PM - - - N/A% 30.44 in 10.0 mi Calm Calm - N/A   Overcast
5:36 PM - - - N/A% 30.44 in 10.0 mi Calm Calm - N/A   Overcast
5:56 PM - - - N/A% 30.44 in 10.0 mi NNW 4.6 mph - N/A   Overcast
6:16 PM - - - N/A% 30.44 in 10.0 mi NNW 3.5 mph - N/A   Overcast
6:36 PM - - - N/A% 30.44 in 10.0 mi NW 3.5 mph - N/A   Overcast
6:56 PM 37.4 °F 34.9 °F 30.2 °F 75% 30.45 in 10.0 mi WNW 3.5 mph - N/A   Overcast
7:16 PM 37.4 °F - 30.2 °F 75% 30.46 in 10.0 mi Calm Calm - N/A   Overcast
7:36 PM 35.6 °F - 30.2 °F 81% 30.46 in 10.0 mi Calm Calm - N/A   Overcast
7:56 PM 33.8 °F - 28.4 °F 81% 30.46 in 10.0 mi Calm Calm - N/A   Overcast
8:16 PM 33.8 °F - 26.6 °F 75% 30.47 in 10.0 mi Calm Calm - N/A   Overcast
8:36 PM 33.8 °F 30.8 °F 28.4 °F 81% 30.46 in 10.0 mi North 3.5 mph - N/A   Overcast
8:56 PM 32.0 °F 28.7 °F 26.6 °F 80% 30.47 in 10.0 mi North 3.5 mph - N/A   Overcast
9:16 PM 32.0 °F 28.7 °F 26.6 °F 80% 30.47 in 10.0 mi North 3.5 mph - N/A   Overcast
9:36 PM 32.0 °F - 26.6 °F 80% 30.47 in 10.0 mi Calm Calm - N/A   Overcast
9:56 PM 32.0 °F - 26.6 °F 80% 30.47 in 10.0 mi Calm Calm - N/A   Overcast
10:16 PM 32.0 °F 28.7 °F 26.6 °F 80% 30.48 in 10.0 mi NNW 3.5 mph - N/A   Overcast
10:36 PM 32.0 °F - 26.6 °F 80% 30.47 in 10.0 mi Calm Calm - N/A   Overcast
10:56 PM 32.0 °F - 26.6 °F 80% 30.48 in 10.0 mi Calm Calm - N/A   Overcast
11:16 PM 32.0 °F 28.7 °F 26.6 °F 80% 30.48 in 10.0 mi NNW 3.5 mph - N/A   Overcast
11:36 PM 30.2 °F - 24.8 °F 80% 30.48 in 10.0 mi Calm Calm - N/A   Overcast
11:56 PM 30.2 °F - 24.8 °F 80% 30.48 in 10.0 mi Calm Calm - N/A   Overcast